Regional Weather Roundup
Issued by NWS Sterling, VA

Home | Current Version | Previous Version | Text Only | Print | Product List | Glossary On
Versions: 1 2 3 4 5 6 7 8 9 10 11 12 13 14 15 16 17 18 19 20 21 22 23 24 25 26 27
000
ASUS41 KLWX 221611
RWRLWX

REGIONAL WEATHER ROUNDUP
NATIONAL WEATHER SERVICE BALTIMORE MD/WASHINGTON DC
1200 PM EDT MON MAY 22 2017

Note: "FAIR" indicates few or no clouds below 12,000 feet
with no significant weather and/or obstructions to visibility.
 TC=TEMPERATURE CELSIUS

 * =Non NWS site. Station does not report precipitation (e.g. rain,
    snow, etc.), thunder, or fog.

DCZ001-MDZ009-015-VAZ040>042-051-053>054-221700-
WASHINGTON METRO

CITY           SKY/WX    TMP DP  RH WIND       PRES   REMARKS
WASHINGTON NAT CLOUDY    63  61  93 S3        30.05F
DULLES         CLOUDY    62  59  90 SW5       30.05F
ANDREWS AFB    CLOUDY    62  60  95 CALM      30.04S
FT BELVOIR     CLOUDY    62  60  91 CALM      30.04F
QUANTICO       CLOUDY    64  62  93 CALM      30.05F
COLLEGE PARK*  CLOUDY    61  59  91 CALM      30.05S
LEESBURG*      CLOUDY    63  63 100 S5        30.05F
MANASSAS*        N/A     64  61  90 S5        30.05F
GAITHERSBURG*  CLOUDY    62  60  93 S3        30.06S

$$

MDZ006>007-011-014-221700-
BALTIMORE METRO

CITY           SKY/WX    TMP DP  RH WIND       PRES   REMARKS
BWI AIRPORT    LGT RAIN  61  61 100 CALM      30.05S
MD SCIENCE CTR   N/A     62  60  93 MISG      30.05F
MARTIN STATE   LGT RAIN  61  61 100 CALM      30.05F
ANNAPOLIS      LGT RAIN  63  63 100 SE6       30.04F

$$

MDZ012-015-019>023-221700-
MARYLAND EASTERN SHORE

CITY           SKY/WX    TMP DP  RH WIND       PRES   REMARKS
OCEAN CITY     LGT RAIN  64  62  93 S6        30.06F
SALISBURY      LGT RAIN  68  68 100 S7        30.04F FOG
BAY BRIDGE AP* RAIN      63  61  94 SE3       30.05S FOG
CAMBRIDGE*     CLOUDY    63  61  94 CALM      30.04F FOG
EASTON*        LGT RAIN  63  61  94 CALM      30.08F

$$

MDZ017>025-221700-
SOUTHERN MARYLAND

CITY           SKY/WX    TMP DP  RH WIND       PRES   REMARKS
PATUXENT RIVER CLOUDY    63  63 100 CALM      30.04F
ST INIGOES     CLOUDY    64  64 100 E3        30.03F
LEONARDTOWN*   CLOUDY    61  59  94 CALM      30.06S

$$

MDZ003>005-221700-
NORTH CENTRAL MARYLAND

CITY           SKY/WX    TMP DP  RH WIND       PRES   REMARKS
FREDERICK*     CLOUDY    63  63 100 CALM      30.07F
HAGERSTOWN APT CLOUDY    64  59  83 S8        30.03F
WESTMINSTER*   CLOUDY    63  61  94 SE3       30.04F

$$

MDZ501>502-221700-
WESTERN MARYLAND

CITY           SKY/WX    TMP DP  RH WIND       PRES   REMARKS
OAKLAND*       CLOUDY    55  55 100 W8        30.09R FOG
CUMBERLAND*    CLOUDY    68  61  77 CALM      30.05S

$$

VAZ025>031-221700-
SHENANDOAH VALLEY

CITY           SKY/WX    TMP DP  RH WIND       PRES   REMARKS
WINCHESTER*    CLOUDY    66  61  82 E5        30.02F
FRONT ROYAL*   PTSUNNY   73  61  64 SW5       30.00F
LURAY*         MOSUNNY   73  63  68 S8        30.01F
NEW MARKET*    MOSUNNY   73  62  68 S3        30.01F
STAUNTON*      PTSUNNY   71  63  76 S8        30.05F
WAYNESBORO*    PTSUNNY   71  65  80 SW9G16    30.05F

$$

WVZ021-048>050-054>055-221700-
EASTERN WEST VIRGINIA PANHANDLE

CITY           SKY/WX    TMP DP  RH WIND       PRES   REMARKS
MARTINSBURG    PTSUNNY   67  61  81 VRB3      30.01F
PETERSBURG*    PTSUNNY   78  63  60 W9        30.01S

$$

VAZ036>039-050-221700-
CENTRAL FOOTHILLS

CITY           SKY/WX    TMP DP  RH WIND       PRES   REMARKS
CHARLOTTESVILL CLOUDY    67  62  84 CALM      30.04F
CULPEPER*      CLOUDY    65  62  91 CALM      30.06S
ORANGE*        CLOUDY    64  61  88 CALM      30.04F
GORDONSVILLE*  PTSUNNY   68  63  85 S3        30.04F
WARRENTON*     CLOUDY    65  60  82 CALM      30.04F

$$

VAZ055>057-221700-
NORTH AND CENTRAL PIEDMONT

CITY           SKY/WX    TMP DP  RH WIND       PRES   REMARKS
FREDERICKSBRG* CLOUDY    64  64 100 CALM      30.04S
STAFFORD*      CLOUDY    62  62 100 CALM      30.09F

$$

NCZ024-NYZ072-PAZ021-071-VAZ022-071-221700-
OTHER REGIONAL OBSERVATIONS

CITY           SKY/WX    TMP DP  RH WIND       PRES   REMARKS
NEW YORK CITY  LGT RAIN  56  55  97 S3        30.12F FOG
PHILADELPHIA   CLOUDY    60  58  92 E6        30.06F
PITTSBURGH     PTSUNNY   61  52  72 W13G20    30.05R
ROANOKE        PTSUNNY   67  63  87 W6        30.09S
RICHMOND       LGT RAIN  64  63  96 NE5       30.03F FOG
RALEIGH        CLOUDY    72  66  81 W9G18     30.04R

$$

ANZ530>537-221700-
MARINE OBSERVATIONS

STATION/POSITION TIME  TEMP    WIND        PRES
                       AIR SEA DIR/SP/G
                 (UTC) (F)     (DEG/KT/KT) (MB)
THOMAS PT LIGHT  1600   61 66  150/  4/  4   N/A
BALT KEY BRIDGE  1542   60     120/  8/  9 1017.1F
COVE POINT       1542   62      CALM  /  1 1018.0F
LEWISETTA        1542   64 67   80/  1/  3 1017.0F
SOLOMONS ISLAND  1542   62 67   CALM  /  2   N/A
PINEY POINT      1548          130/  2/  2   N/A

$$





USA.gov is the U.S. government's official web portal to all federal, state and local government web resources and services.